Time,TemperatureF,DewpointF,PressureIn,WindDirection,WindDirectionDegrees,WindSpeedMPH,WindSpeedGustMPH,Humidity,HourlyPrecipIn,Conditions,Clouds,dailyrainin,SolarRadiationWatts/m^2,SoftwareType,DateUTC
2013-01-15 00:03:00,50.0,49.0,-100.00,North,354,2.0,6.0,97,0.00,,,2.23,0.000000,,2013-01-15 05:03:00,
2013-01-15 00:22:00,50.0,49.0,-100.00,NE,43,2.0,4.0,97,0.00,,,2.10,0.000000,,2013-01-15 05:22:00,
2013-01-15 00:33:00,50.0,49.0,-100.00,NE,43,2.0,4.0,97,0.00,,,2.10,0.000000,,2013-01-15 05:33:00,
2013-01-15 00:42:00,50.0,49.0,-100.00,NE,43,2.0,4.0,97,0.00,,,2.10,0.000000,,2013-01-15 05:42:00,
2013-01-15 00:53:00,50.0,49.0,-100.00,NE,43,2.0,4.0,97,0.00,,,2.10,0.000000,,2013-01-15 05:53:00,
2013-01-15 01:02:00,50.0,49.0,-100.00,NE,43,2.0,4.0,97,0.00,,,2.10,0.000000,,2013-01-15 06:02:00,
2013-01-15 01:33:00,50.0,49.0,-100.00,SSW,204,1.0,5.0,98,0.00,,,1.92,0.000000,,2013-01-15 06:33:00,
2013-01-15 01:43:00,50.0,49.0,-100.00,SSW,204,1.0,5.0,98,0.00,,,1.92,0.000000,,2013-01-15 06:43:00,
2013-01-15 01:53:00,50.0,49.0,-100.00,SSW,204,1.0,5.0,98,0.00,,,1.92,0.000000,,2013-01-15 06:53:00,
2013-01-15 02:02:00,50.0,49.0,-100.00,SSW,204,1.0,5.0,98,0.00,,,1.92,0.000000,,2013-01-15 07:02:00,
2013-01-15 02:33:00,50.0,50.0,-100.00,SW,218,2.0,4.0,99,0.03,,,1.70,0.000000,,2013-01-15 07:33:00,
2013-01-15 02:43:00,50.0,50.0,-100.00,SW,218,2.0,4.0,99,0.03,,,1.70,0.000000,,2013-01-15 07:43:00,
2013-01-15 02:53:00,50.0,50.0,-100.00,SW,218,2.0,4.0,99,0.03,,,1.70,0.000000,,2013-01-15 07:53:00,
2013-01-15 03:02:00,50.0,50.0,-100.00,SW,218,2.0,4.0,99,0.03,,,1.70,0.000000,,2013-01-15 08:02:00,
2013-01-15 03:33:00,50.0,50.0,-100.00,NNE,26,2.0,4.0,99,0.02,,,1.64,0.000000,,2013-01-15 08:33:00,
2013-01-15 03:43:00,50.0,50.0,-100.00,NNE,26,2.0,4.0,99,0.02,,,1.64,0.000000,,2013-01-15 08:43:00,
2013-01-15 03:53:00,50.0,50.0,-100.00,NNE,26,2.0,4.0,99,0.02,,,1.64,0.000000,,2013-01-15 08:53:00,
2013-01-15 04:02:00,50.0,50.0,-100.00,NNE,26,2.0,4.0,99,0.02,,,1.64,0.000000,,2013-01-15 09:02:00,
2013-01-15 04:33:00,51.0,51.0,-100.00,North,4,1.0,2.0,99,0.02,,,1.65,0.000000,,2013-01-15 09:33:00,
2013-01-15 04:43:00,51.0,51.0,-100.00,North,4,1.0,2.0,99,0.02,,,1.65,0.000000,,2013-01-15 09:43:00,
2013-01-15 04:52:00,51.0,51.0,-100.00,North,4,1.0,2.0,99,0.02,,,1.65,0.000000,,2013-01-15 09:52:00,
2013-01-15 05:02:00,51.0,51.0,-100.00,North,4,1.0,2.0,99,0.02,,,1.65,0.000000,,2013-01-15 10:02:00,
2013-01-15 05:33:00,51.0,51.0,-100.00,SSW,213,2.0,5.0,99,0.04,,,1.67,0.000000,,2013-01-15 10:33:00,
2013-01-15 05:42:00,51.0,51.0,-100.00,SSW,213,2.0,5.0,99,0.04,,,1.67,0.000000,,2013-01-15 10:42:00,
2013-01-15 05:52:00,51.0,51.0,-100.00,SSW,213,2.0,5.0,99,0.04,,,1.67,0.000000,,2013-01-15 10:52:00,
2013-01-15 06:02:00,51.0,51.0,-100.00,SSW,213,2.0,5.0,99,0.04,,,1.67,0.000000,,2013-01-15 11:02:00,
2013-01-15 06:33:00,54.0,54.0,-100.00,SW,215,4.0,9.0,99,0.23,,,1.90,0.000000,,2013-01-15 11:33:00,
2013-01-15 06:43:00,54.0,54.0,-100.00,SW,215,4.0,9.0,99,0.23,,,1.90,0.000000,,2013-01-15 11:43:00,
2013-01-15 06:53:00,54.0,54.0,-100.00,SW,215,4.0,9.0,99,0.23,,,1.90,0.000000,,2013-01-15 11:53:00,
2013-01-15 07:03:00,54.0,54.0,-100.00,SW,215,4.0,9.0,99,0.23,,,1.90,0.000000,,2013-01-15 12:03:00,
2013-01-15 07:23:00,54.0,54.0,-100.00,SW,229,3.0,9.0,99,0.20,,,2.06,0.000000,,2013-01-15 12:23:00,
2013-01-15 07:33:00,54.0,54.0,-100.00,SW,229,3.0,9.0,99,0.20,,,2.06,0.000000,,2013-01-15 12:33:00,
2013-01-15 07:43:00,54.0,54.0,-100.00,SW,229,3.0,9.0,99,0.20,,,2.06,0.000000,,2013-01-15 12:43:00,
2013-01-15 07:53:00,54.0,54.0,-100.00,SW,229,3.0,9.0,99,0.20,,,2.06,0.000000,,2013-01-15 12:53:00,
2013-01-15 08:03:00,54.0,54.0,-100.00,SW,229,3.0,9.0,99,0.20,,,2.06,0.000000,,2013-01-15 13:03:00,
2013-01-15 08:33:00,54.0,54.0,-100.00,SW,214,3.0,6.0,99,0.18,,,2.23,2.000000,,2013-01-15 13:33:00,
2013-01-15 08:43:00,54.0,54.0,-100.00,SW,214,3.0,6.0,99,0.18,,,2.23,2.000000,,2013-01-15 13:43:00,
2013-01-15 08:53:00,54.0,54.0,-100.00,SW,214,3.0,6.0,99,0.18,,,2.23,2.000000,,2013-01-15 13:53:00,
2013-01-15 09:03:00,54.0,54.0,-100.00,SW,214,3.0,6.0,99,0.18,,,2.23,2.000000,,2013-01-15 14:03:00,
2013-01-15 09:33:00,55.0,54.0,-100.00,SSW,200,3.0,10.0,98,0.18,,,2.34,12.000000,,2013-01-15 14:33:00,
2013-01-15 09:43:00,55.0,54.0,-100.00,SSW,200,3.0,10.0,98,0.18,,,2.34,12.000000,,2013-01-15 14:43:00,
2013-01-15 09:54:00,55.0,54.0,-100.00,SSW,200,3.0,10.0,98,0.18,,,2.34,12.000000,,2013-01-15 14:54:00,
2013-01-15 10:03:00,55.0,54.0,-100.00,SSW,200,3.0,10.0,98,0.18,,,2.34,12.000000,,2013-01-15 15:03:00,
2013-01-15 10:33:00,55.0,54.0,-100.00,SW,219,6.0,14.0,97,0.10,,,2.31,25.000000,,2013-01-15 15:33:00,
2013-01-15 10:43:00,55.0,54.0,-100.00,SW,219,6.0,14.0,97,0.10,,,2.31,25.000000,,2013-01-15 15:43:00,
2013-01-15 10:53:00,55.0,54.0,-100.00,SW,219,6.0,14.0,97,0.10,,,2.31,25.000000,,2013-01-15 15:53:00,
2013-01-15 11:03:00,55.0,54.0,-100.00,SW,219,6.0,14.0,97,0.10,,,2.31,25.000000,,2013-01-15 16:03:00,
2013-01-15 11:33:00,55.0,54.0,-100.00,SSW,207,4.0,15.0,97,0.14,,,2.40,51.000000,,2013-01-15 16:33:00,
2013-01-15 11:43:00,55.0,54.0,-100.00,SSW,207,4.0,15.0,97,0.14,,,2.40,51.000000,,2013-01-15 16:43:00,
2013-01-15 11:53:00,55.0,54.0,-100.00,SSW,207,4.0,15.0,97,0.14,,,2.40,51.000000,,2013-01-15 16:53:00,
2013-01-15 12:03:00,55.0,54.0,-100.00,SSW,207,4.0,15.0,97,0.14,,,2.40,51.000000,,2013-01-15 17:03:00,
2013-01-15 12:33:00,55.0,54.0,-100.00,SW,223,5.0,11.0,97,0.13,,,2.50,66.000000,,2013-01-15 17:33:00,
2013-01-15 12:43:00,55.0,54.0,-100.00,SW,223,5.0,11.0,97,0.13,,,2.50,66.000000,,2013-01-15 17:43:00,
2013-01-15 12:53:00,55.0,54.0,-100.00,SW,223,5.0,11.0,97,0.13,,,2.50,66.000000,,2013-01-15 17:53:00,
2013-01-15 13:03:00,55.0,54.0,-100.00,SW,223,5.0,11.0,97,0.13,,,2.50,66.000000,,2013-01-15 18:03:00,
2013-01-15 13:34:00,54.0,53.0,-100.00,South,191,4.0,8.0,97,0.15,,,2.57,59.000000,,2013-01-15 18:34:00,
2013-01-15 13:43:00,54.0,53.0,-100.00,South,191,4.0,8.0,97,0.15,,,2.57,59.000000,,2013-01-15 18:43:00,
2013-01-15 13:54:00,54.0,53.0,-100.00,South,191,4.0,8.0,97,0.15,,,2.57,59.000000,,2013-01-15 18:54:00,
2013-01-15 14:03:00,54.0,53.0,-100.00,South,191,4.0,8.0,97,0.15,,,2.57,59.000000,,2013-01-15 19:03:00,
2013-01-15 14:33:00,53.0,52.0,-100.00,SSW,204,4.0,9.0,97,0.11,,,2.39,90.000000,,2013-01-15 19:33:00,
2013-01-15 14:43:00,53.0,52.0,-100.00,SSW,204,4.0,9.0,97,0.11,,,2.39,90.000000,,2013-01-15 19:43:00,
2013-01-15 14:53:00,53.0,52.0,-100.00,SSW,204,4.0,9.0,97,0.11,,,2.39,90.000000,,2013-01-15 19:53:00,
2013-01-15 15:03:00,53.0,52.0,-100.00,SSW,204,4.0,9.0,97,0.11,,,2.39,90.000000,,2013-01-15 20:03:00,
2013-01-15 15:33:00,52.0,51.0,-100.00,South,188,4.0,9.0,97,0.13,,,2.21,62.000000,,2013-01-15 20:33:00,
2013-01-15 15:44:00,52.0,51.0,-100.00,South,188,4.0,9.0,97,0.13,,,2.21,62.000000,,2013-01-15 20:44:00,
2013-01-15 15:53:00,52.0,51.0,-100.00,South,188,4.0,9.0,97,0.13,,,2.21,62.000000,,2013-01-15 20:53:00,
2013-01-15 16:03:00,52.0,51.0,-100.00,South,188,4.0,9.0,97,0.13,,,2.21,62.000000,,2013-01-15 21:03:00,
2013-01-15 16:34:00,52.0,51.0,-100.00,SSW,212,3.0,7.0,98,0.19,,,2.27,32.000000,,2013-01-15 21:34:00,
2013-01-15 16:43:00,52.0,51.0,-100.00,SSW,212,3.0,7.0,98,0.19,,,2.27,32.000000,,2013-01-15 21:43:00,
2013-01-15 16:53:00,52.0,51.0,-100.00,SSW,212,3.0,7.0,98,0.19,,,2.27,32.000000,,2013-01-15 21:53:00,
2013-01-15 17:03:00,52.0,51.0,-100.00,SSW,212,3.0,7.0,98,0.19,,,2.27,32.000000,,2013-01-15 22:03:00,
2013-01-15 17:33:00,51.0,50.0,-100.00,SSW,201,3.0,8.0,98,0.17,,,2.37,12.000000,,2013-01-15 22:33:00,
2013-01-15 17:43:00,51.0,50.0,-100.00,SSW,201,3.0,8.0,98,0.17,,,2.37,12.000000,,2013-01-15 22:43:00,
2013-01-15 17:53:00,51.0,50.0,-100.00,SSW,201,3.0,8.0,98,0.17,,,2.37,12.000000,,2013-01-15 22:53:00,
2013-01-15 18:03:00,51.0,50.0,-100.00,SSW,201,3.0,8.0,98,0.17,,,2.37,12.000000,,2013-01-15 23:03:00,
2013-01-15 18:33:00,51.0,51.0,-100.00,South,170,2.0,6.0,99,0.20,,,2.49,1.000000,,2013-01-15 23:33:00,
2013-01-15 18:43:00,51.0,51.0,-100.00,South,170,2.0,6.0,99,0.20,,,2.49,1.000000,,2013-01-15 23:43:00,
2013-01-15 18:53:00,51.0,51.0,-100.00,South,170,2.0,6.0,99,0.20,,,2.49,1.000000,,2013-01-15 23:53:00,
2013-01-15 19:03:00,51.0,51.0,-100.00,South,170,2.0,6.0,99,0.20,,,2.49,1.000000,,2013-01-16 00:03:00,
2013-01-15 19:23:00,52.0,52.0,-100.00,SW,225,4.0,7.0,99,0.11,,,2.57,0.000000,,2013-01-16 00:23:00,
2013-01-15 19:33:00,52.0,52.0,-100.00,SW,225,4.0,7.0,99,0.11,,,2.57,0.000000,,2013-01-16 00:33:00,
2013-01-15 19:43:00,52.0,52.0,-100.00,SW,225,4.0,7.0,99,0.11,,,2.57,0.000000,,2013-01-16 00:43:00,
2013-01-15 19:53:00,52.0,52.0,-100.00,SW,225,4.0,7.0,99,0.11,,,2.57,0.000000,,2013-01-16 00:53:00,
2013-01-15 20:03:00,52.0,52.0,-100.00,SW,225,4.0,7.0,99,0.11,,,2.57,0.000000,,2013-01-16 01:03:00,
2013-01-15 20:33:00,51.0,51.0,-100.00,SW,232,6.0,10.0,99,0.19,,,2.67,0.000000,,2013-01-16 01:33:00,
2013-01-15 20:43:00,51.0,51.0,-100.00,SW,232,6.0,10.0,99,0.19,,,2.67,0.000000,,2013-01-16 01:43:00,
2013-01-15 20:53:00,51.0,51.0,-100.00,SW,232,6.0,10.0,99,0.19,,,2.67,0.000000,,2013-01-16 01:53:00,
2013-01-15 21:03:00,51.0,51.0,-100.00,SW,232,6.0,10.0,99,0.19,,,2.67,0.000000,,2013-01-16 02:03:00,
2013-01-15 21:33:00,51.0,51.0,-100.00,SW,224,6.0,11.0,99,0.14,,,2.67,0.000000,,2013-01-16 02:33:00,
2013-01-15 21:43:00,51.0,51.0,-100.00,SW,224,6.0,11.0,99,0.14,,,2.67,0.000000,,2013-01-16 02:43:00,
2013-01-15 21:53:00,51.0,51.0,-100.00,SW,224,6.0,11.0,99,0.14,,,2.67,0.000000,,2013-01-16 02:53:00,
2013-01-15 22:03:00,51.0,51.0,-100.00,SW,224,6.0,11.0,99,0.14,,,2.67,0.000000,,2013-01-16 03:03:00,
2013-01-15 22:33:00,52.0,51.0,-100.00,SW,221,6.0,13.0,98,0.11,,,2.77,0.000000,,2013-01-16 03:33:00,
2013-01-15 22:43:00,52.0,51.0,-100.00,SW,221,6.0,13.0,98,0.11,,,2.77,0.000000,,2013-01-16 03:43:00,
2013-01-15 22:53:00,52.0,51.0,-100.00,SW,221,6.0,13.0,98,0.11,,,2.77,0.000000,,2013-01-16 03:53:00,
2013-01-15 23:02:00,52.0,51.0,-100.00,SW,221,6.0,13.0,98,0.11,,,2.77,0.000000,,2013-01-16 04:02:00,
2013-01-15 23:33:00,51.0,50.0,-100.00,SW,232,5.0,14.0,98,0.05,,,2.82,0.000000,,2013-01-16 04:33:00,
2013-01-15 23:42:00,51.0,50.0,-100.00,SW,232,5.0,14.0,98,0.05,,,2.82,0.000000,,2013-01-16 04:42:00,
2013-01-15 23:53:00,51.0,50.0,-100.00,SW,232,5.0,14.0,98,0.05,,,2.82,0.000000,,2013-01-16 04:53:00,